SCP
-0 0 0 -0 -0 0 0 0 0 0 0 0 0 0 0 0 0 0 0 0 -0 -0 0 0 0 0 0 0 0 0 0 0 0 0 0 0 0 0
-0 -0 -0 -0 -0 0 0 0 0 0 0 0 0 0 0 0 0 0 0 0 -0 -0 0 0 0 0 0 0 0 0 0 0 0 0 0 0 0 0
0 0 0 0 0 0 0 0 0 0 0 0 0 0 0 0 0 0 0 0 0 0 0 0 0 0 0 0 0 0 0 0 0 0 0 0 0 0
0 0 0 1 0 1 0 0 1 0 0 0 0 0 0 0 0 0 0 0 0 0 0 0 0 0 0 0 0 0 0 0 0 0 0 0 0 0
0 0 0 1 1 1 1 1 0 0 0 0 0 0 0 0 0 0 0 0 0 0 0 0 0 0 0 0 0 0 0 0 0 0 0 0 0 0
-0 0 0 0 0 1 1 0 0 0 0 0 0 0 0 0 0 0 0 0 0 0 0 0 0 0 0 0 0 0 0 0 0 0 0 0 0 0
-0 0 0 0 0 0 0 0 0 0 0 0 0 -0 0 0 0 0 0 0 0 0 0 0 0 0 0 0 0 0 0 0 0 0 0 0 0 0
0 0 0 0 0 0 0 0 0 0 0 0 0 0 0 0 0 0 0 0 0 0 0 0 0 0 -0 -0 0 0 0 0 0 0 0 0 0 0
0 0 0 0 0 0 0 0 0 0 0 0 0 0 0 0 0 0 0 0 0 0 0 0 0 0 -0 -0 -0 0 0 0 0 0 0 0 0 0
0 0 0 0 0 0 0 0 0 0 0 0 0 0 0 0 0 0 0 0 0 0 0 0 0 -0 -0 -0 0 0 0 0 0 0 0 0 0 0
0 0 0 0 0 0 0 0 0 0 0 0 0 0 0 0 0 0 0 0 0 0 0 0 0 0 -0 0 0 0 0 0 0 0 0 0 0 0
0 0 0 0 0 0 0 0 0 0 0 0 0 0 0 0 0 0 0 0 0 0 0 0 0 0 0 0 0 0 0 0 0 0 0 0 0 0
0 0 0 0 0 0 0 0 0 0 0 0 0 0 0 0 0 0 0 0 0 0 0 0 0 0 0 0 0 0 0 0 0 0 0 0 0 0
0 0 0 0 0 0 0 0 0 0 0 0 0 0 0 0 0 0 0 0 0 0 0 0 0 0 0 0 0 0 0 0 0 0 0 0 0 0
0 -0 -0 0 0 0 0 0 0 0 0 0 0 0 -0 0 0 0 0 0 0 0 0 0 0 0 0 0 0 0 0 0 0 0 0 0 0 0
0 0 0 0 0 0 0 0 0 0 0 0 0 0 0 0 0 0 0 0 0 0 0 0 0 0 0 0 0 0 0 0 0 0 0 0 0 0
0 0 0 0 0 0 0 0 0 0 0 0 0 0 0 0 0 0 0 0 0 0 0 0 0 0 0 0 0 0 0 0 0 0 0 0 0 0
0 0 0 0 0 0 0 0 0 0 0 0 0 0 0 0 0 0 0 0 0 0 0 0 0 0 0 0 0 0 0 0 0 0 0 0 0 0
0 0 0 0 0 0 0 0 0 0 0 0 0 0 0 0 0 0 0 0 0 0 0 0 0 0 0 0 0 0 0 0 0 0 0 0 0 -0
0 0 0 0 0 0 0 0 0 0 0 0 0 0 0 0 0 0 0 0 0 0 0 0 0 0 0 0 0 0 0 0 0 0 0 0 -0 -0
0 0 0 0 0 0 0 0 0 0 0 0 0 0 0 0 0 0 0 0 0 0 0 0 0 0 0 0 0 0 0 0 0 0 0 0 0 0
0 0 0 0 0 0 0 0 0 0 0 0 0 0 0 0 0 0 0 0 0 0 0 0 0 0 0 0 0 0 0 -0 -0 -0 0 0 0 0
0 0 0 0 0 0 0 0 0 0 0 0 0 0 0 0 0 0 0 0 0 0 0 0 0 0 0 0 0 0 0 -0 -0 -0 0 0 0 0
Wind_Speed_500mb
35 38 40 41 37 37 30 28 35 37 41 37 34 28 26 28 22 33 38 34 35 38 36 37 38 34 32 31 28 25 22 20 17 15 12 7 3 3
33 32 30 32 39 45 46 39 36 40 46 41 39 36 29 29 24 27 35 36 39 40 38 35 35 35 34 30 26 22 20 19 18 16 13 8 3 2
34 34 38 37 36 38 39 40 44 43 41 42 40 42 42 40 34 33 35 42 44 46 41 40 38 37 34 29 24 22 21 20 20 17 13 8 4 3
42 46 45 38 40 39 40 39 44 44 46 45 47 51 48 46 42 41 39 41 47 47 48 45 43 39 35 28 25 24 23 22 20 17 14 9 7 6
46 49 51 52 52 49 45 40 40 42 40 38 51 53 55 55 52 50 46 41 41 43 44 46 44 40 35 30 27 26 24 22 20 17 14 12 11 12
48 52 58 50 51 51 48 40 40 41 48 46 58 59 51 56 66 59 55 51 41 44 46 46 43 42 37 30 29 27 25 21 20 18 15 15 17 17
58 57 47 44 48 54 51 43 41 41 50 70 81 73 72 52 66 59 50 54 38 51 50 48 47 45 42 36 34 30 27 23 20 18 17 19 20 24
53 59 53 48 44 45 29 34 39 54 54 57 56 83 70 74 60 57 46 40 47 51 62 56 52 46 37 35 29 28 27 25 21 18 19 23 26 28
44 46 46 43 41 43 43 41 43 50 52 54 54 53 52 53 61 68 53 47 55 55 56 58 55 48 39 31 30 29 28 26 23 22 22 23 24 26
28 33 36 33 27 24 27 26 33 39 41 36 38 38 38 31 29 29 45 45 53 54 44 51 55 45 45 36 30 28 26 24 19 18 16 16 13 12
26 33 34 34 27 23 26 29 34 34 25 26 30 30 32 42 42 43 47 53 62 55 49 48 50 50 45 40 32 28 26 21 20 16 2 7 5 7
34 32 28 22 20 20 25 33 34 31 21 13 17 21 26 38 44 43 47 52 55 51 49 51 52 45 37 40 35 39 36 29 19 11 5 5 3 6
14 10 10 15 18 22 28 32 30 24 14 8 7 11 14 17 31 37 39 47 57 39 35 50 49 48 39 49 45 36 31 21 15 7 1 3 4 4
19 17 18 20 22 21 18 17 16 13 10 12 10 9 9 14 23 28 23 33 30 32 41 52 50 53 45 54 48 37 31 26 11 13 5 7 5 3
35 31 28 28 26 23 22 22 19 14 7 8 9 7 9 4 6 21 23 24 23 36 49 47 36 49 28 46 29 34 30 27 15 13 12 10 10 9
27 31 30 30 30 28 27 27 25 22 15 8 4 9 21 27 22 16 15 22 29 28 26 23 22 27 28 15 20 31 33 23 17 13 15 12 9 6
24 19 20 21 21 23 26 26 27 28 17 4 6 16 17 19 16 18 18 26 29 35 39 34 29 21 20 14 21 24 22 22 19 8 13 12 8 6
34 27 18 15 15 14 18 23 19 23 20 17 11 13 18 20 17 21 19 20 27 29 29 14 20 19 17 16 20 20 16 13 10 11 14 16 11 6
36 31 30 19 14 10 14 16 14 14 11 8 7 7 12 13 14 19 25 22 11 18 10 21 17 11 13 17 18 19 12 14 11 12 14 18 12 10
29 27 32 23 16 15 14 12 5 6 7 2 2 8 11 10 5 16 20 15 10 16 21 19 10 10 11 11 18 19 15 10 14 17 19 17 14 14
24 28 32 31 20 17 17 16 9 3 2 3 6 8 16 13 12 20 20 19 15 20 19 12 18 21 20 20 14 15 7 9 12 17 21 17 17 22
16 20 27 32 23 18 19 20 15 5 3 4 4 6 15 15 14 17 18 20 17 24 19 15 26 23 15 14 12 8 4 1 10 10 16 21 20 7
10 14 22 26 26 29 25 16 15 16 3 4 6 8 11 12 15 17 21 18 32 29 21 21 33 21 15 9 4 9 3 9 11 4 1 2 7 10
Wind_Direction_500mb
226 229 240 246 242 246 259 267 272 276 281 279 268 268 261 244 245 242 234 249 238 238 226 223 220 217 218 225 230 235 237 233 228 219 207 211 243 329
241 248 254 263 257 248 251 260 267 266 272 277 279 269 265 261 254 261 247 242 235 233 232 226 220 216 217 223 229 231 226 218 204 194 191 191 197 357
247 259 260 261 258 252 255 257 272 283 275 275 275 268 260 262 258 263 257 241 231 234 229 222 220 219 220 222 224 223 215 205 197 192 196 202 230 318
256 259 260 252 254 258 265 268 276 286 284 289 278 273 264 261 255 258 260 244 234 228 226 221 219 219 219 223 221 214 208 203 202 203 212 230 259 285
272 275 272 264 261 259 259 265 274 273 272 283 283 272 270 263 252 254 252 246 236 226 223 221 220 220 221 220 218 211 208 205 206 211 226 244 262 265
278 288 279 275 274 272 271 268 271 277 277 283 286 279 266 267 258 257 251 237 230 225 221 218 218 218 221 218 218 212 208 207 209 217 229 245 252 263
278 288 289 281 271 276 279 273 279 278 296 270 274 263 268 267 251 250 253 249 237 223 203 203 210 209 209 215 217 213 209 210 213 221 241 257 263 265
285 283 290 285 281 285 296 288 287 282 280 280 260 242 254 249 249 246 255 237 236 229 211 201 205 206 204 209 212 208 209 213 221 236 255 271 274 275
282 280 282 283 282 276 280 283 287 290 279 278 271 264 271 260 249 240 230 231 232 246 226 217 208 211 202 183 192 196 204 216 228 249 267 279 277 277
288 289 292 298 300 295 291 296 293 295 286 269 264 268 270 241 238 233 223 238 232 238 225 223 209 196 185 186 195 203 206 215 229 251 259 261 261 269
304 300 299 293 290 288 285 289 308 310 296 261 256 254 250 240 256 229 228 231 221 218 216 216 207 197 205 196 203 206 200 205 201 198 279 288 252 286
289 296 301 291 289 293 311 312 316 317 317 303 278 247 252 252 248 242 240 219 218 204 207 199 195 201 204 197 191 185 178 176 176 180 90 102 196 332
324 322 342 307 307 314 314 316 323 324 325 322 308 282 270 261 226 230 216 218 213 201 210 194 192 195 185 179 181 176 171 173 169 199 82 32 170 24
23 11 360 351 336 334 347 356 350 352 340 338 336 290 265 256 242 230 225 208 192 218 193 185 190 191 187 179 175 177 183 190 193 202 253 302 281 266
47 45 53 47 41 34 28 25 22 11 350 30 39 38 340 350 199 187 161 162 191 189 187 183 186 196 209 186 192 197 202 207 208 220 246 281 283 285
38 42 42 41 40 37 32 22 18 17 43 44 87 70 101 103 103 131 156 175 166 148 151 157 155 171 195 204 184 189 204 205 213 230 241 256 257 238
28 34 34 27 27 21 25 23 24 24 28 38 139 135 119 119 118 126 135 147 156 147 135 139 144 151 157 173 195 192 190 204 196 210 225 234 213 231
30 26 20 18 21 16 9 11 17 26 37 62 111 132 148 143 129 130 146 147 158 152 152 171 159 162 173 173 171 182 182 166 191 218 237 236 229 300
24 19 13 3 355 5 353 348 11 19 12 34 82 118 147 149 139 156 159 172 174 171 181 163 175 198 213 192 183 194 195 187 211 244 234 215 242 293
17 19 14 17 13 13 3 2 31 13 355 258 328 174 172 184 218 182 177 179 186 172 164 168 187 168 178 163 185 195 206 208 279 237 221 227 246 264
24 31 27 24 23 15 4 349 332 304 327 236 247 217 205 201 196 183 189 180 179 172 165 161 158 158 141 143 149 159 191 285 272 219 223 242 250 261
1 16 21 20 13 3 2 6 356 320 276 267 283 209 191 200 193 197 198 200 191 179 180 178 168 159 141 140 152 162 227 317 129 176 235 253 262 251
351 8 12 18 24 20 7 354 358 359 333 237 214 213 198 200 190 184 187 211 184 184 196 194 176 179 180 168 158 189 196 165 184 205 240 63 157 162
Wind_Speed_850mb
35 38 40 41 37 37 30 28 35 37 41 37 34 28 26 28 22 33 38 34 35 38 36 37 38 34 32 31 28 25 22 20 17 15 12 7 3 3
33 32 30 32 39 45 46 39 36 40 46 41 39 36 29 29 24 27 35 36 39 40 38 35 35 35 34 30 26 22 20 19 18 16 13 8 3 2
34 34 38 37 36 38 39 40 44 43 41 42 40 42 42 40 34 33 35 42 44 46 41 40 38 37 34 29 24 22 21 20 20 17 13 8 4 3
42 46 45 38 40 39 40 39 44 44 46 45 47 51 48 46 42 41 39 41 47 47 48 45 43 39 35 28 25 24 23 22 20 17 14 9 7 6
46 49 51 52 52 49 45 40 40 42 40 38 51 53 55 55 52 50 46 41 41 43 44 46 44 40 35 30 27 26 24 22 20 17 14 12 11 12
48 52 58 50 51 51 48 40 40 41 48 46 58 59 51 56 66 59 55 51 41 44 46 46 43 42 37 30 29 27 25 21 20 18 15 15 17 17
58 57 47 44 48 54 51 43 41 41 50 70 81 73 72 52 66 59 50 54 38 51 50 48 47 45 42 36 34 30 27 23 20 18 17 19 20 24
53 59 53 48 44 45 29 34 39 54 54 57 56 83 70 74 60 57 46 40 47 51 62 56 52 46 37 35 29 28 27 25 21 18 19 23 26 28
44 46 46 43 41 43 43 41 43 50 52 54 54 53 52 53 61 68 53 47 55 55 56 58 55 48 39 31 30 29 28 26 23 22 22 23 24 26
28 33 36 33 27 24 27 26 33 39 41 36 38 38 38 31 29 29 45 45 53 54 44 51 55 45 45 36 30 28 26 24 19 18 16 16 13 12
26 33 34 34 27 23 26 29 34 34 25 26 30 30 32 42 42 43 47 53 62 55 49 48 50 50 45 40 32 28 26 21 20 16 2 7 5 7
34 32 28 22 20 20 25 33 34 31 21 13 17 21 26 38 44 43 47 52 55 51 49 51 52 45 37 40 35 39 36 29 19 11 5 5 3 6
14 10 10 15 18 22 28 32 30 24 14 8 7 11 14 17 31 37 39 47 57 39 35 50 49 48 39 49 45 36 31 21 15 7 1 3 4 4
19 17 18 20 22 21 18 17 16 13 10 12 10 9 9 14 23 28 23 33 30 32 41 52 50 53 45 54 48 37 31 26 11 13 5 7 5 3
35 31 28 28 26 23 22 22 19 14 7 8 9 7 9 4 6 21 23 24 23 36 49 47 36 49 28 46 29 34 30 27 15 13 12 10 10 9
27 31 30 30 30 28 27 27 25 22 15 8 4 9 21 27 22 16 15 22 29 28 26 23 22 27 28 15 20 31 33 23 17 13 15 12 9 6
24 19 20 21 21 23 26 26 27 28 17 4 6 16 17 19 16 18 18 26 29 35 39 34 29 21 20 14 21 24 22 22 19 8 13 12 8 6
34 27 18 15 15 14 18 23 19 23 20 17 11 13 18 20 17 21 19 20 27 29 29 14 20 19 17 16 20 20 16 13 10 11 14 16 11 6
36 31 30 19 14 10 14 16 14 14 11 8 7 7 12 13 14 19 25 22 11 18 10 21 17 11 13 17 18 19 12 14 11 12 14 18 12 10
29 27 32 23 16 15 14 12 5 6 7 2 2 8 11 10 5 16 20 15 10 16 21 19 10 10 11 11 18 19 15 10 14 17 19 17 14 14
24 28 32 31 20 17 17 16 9 3 2 3 6 8 16 13 12 20 20 19 15 20 19 12 18 21 20 20 14 15 7 9 12 17 21 17 17 22
16 20 27 32 23 18 19 20 15 5 3 4 4 6 15 15 14 17 18 20 17 24 19 15 26 23 15 14 12 8 4 1 10 10 16 21 20 7
10 14 22 26 26 29 25 16 15 16 3 4 6 8 11 12 15 17 21 18 32 29 21 21 33 21 15 9 4 9 3 9 11 4 1 2 7 10
Wind_Direction_850mb
226 229 240 246 242 246 259 267 272 276 281 279 268 268 261 244 245 242 234 249 238 238 226 223 220 217 218 225 230 235 237 233 228 219 207 211 243 329
241 248 254 263 257 248 251 260 267 266 272 277 279 269 265 261 254 261 247 242 235 233 232 226 220 216 217 223 229 231 226 218 204 194 191 191 197 357
247 259 260 261 258 252 255 257 272 283 275 275 275 268 260 262 258 263 257 241 231 234 229 222 220 219 220 222 224 223 215 205 197 192 196 202 230 318
256 259 260 252 254 258 265 268 276 286 284 289 278 273 264 261 255 258 260 244 234 228 226 221 219 219 219 223 221 214 208 203 202 203 212 230 259 285
272 275 272 264 261 259 259 265 274 273 272 283 283 272 270 263 252 254 252 246 236 226 223 221 220 220 221 220 218 211 208 205 206 211 226 244 262 265
278 288 279 275 274 272 271 268 271 277 277 283 286 279 266 267 258 257 251 237 230 225 221 218 218 218 221 218 218 212 208 207 209 217 229 245 252 263
278 288 289 281 271 276 279 273 279 278 296 270 274 263 268 267 251 250 253 249 237 223 203 203 210 209 209 215 217 213 209 210 213 221 241 257 263 265
285 283 290 285 281 285 296 288 287 282 280 280 260 242 254 249 249 246 255 237 236 229 211 201 205 206 204 209 212 208 209 213 221 236 255 271 274 275
282 280 282 283 282 276 280 283 287 290 279 278 271 264 271 260 249 240 230 231 232 246 226 217 208 211 202 183 192 196 204 216 228 249 267 279 277 277
288 289 292 298 300 295 291 296 293 295 286 269 264 268 270 241 238 233 223 238 232 238 225 223 209 196 185 186 195 203 206 215 229 251 259 261 261 269
304 300 299 293 290 288 285 289 308 310 296 261 256 254 250 240 256 229 228 231 221 218 216 216 207 197 205 196 203 206 200 205 201 198 279 288 252 286
289 296 301 291 289 293 311 312 316 317 317 303 278 247 252 252 248 242 240 219 218 204 207 199 195 201 204 197 191 185 178 176 176 180 90 102 196 332
324 322 342 307 307 314 314 316 323 324 325 322 308 282 270 261 226 230 216 218 213 201 210 194 192 195 185 179 181 176 171 173 169 199 82 32 170 24
23 11 360 351 336 334 347 356 350 352 340 338 336 290 265 256 242 230 225 208 192 218 193 185 190 191 187 179 175 177 183 190 193 202 253 302 281 266
47 45 53 47 41 34 28 25 22 11 350 30 39 38 340 350 199 187 161 162 191 189 187 183 186 196 209 186 192 197 202 207 208 220 246 281 283 285
38 42 42 41 40 37 32 22 18 17 43 44 87 70 101 103 103 131 156 175 166 148 151 157 155 171 195 204 184 189 204 205 213 230 241 256 257 238
28 34 34 27 27 21 25 23 24 24 28 38 139 135 119 119 118 126 135 147 156 147 135 139 144 151 157 173 195 192 190 204 196 210 225 234 213 231
30 26 20 18 21 16 9 11 17 26 37 62 111 132 148 143 129 130 146 147 158 152 152 171 159 162 173 173 171 182 182 166 191 218 237 236 229 300
24 19 13 3 355 5 353 348 11 19 12 34 82 118 147 149 139 156 159 172 174 171 181 163 175 198 213 192 183 194 195 187 211 244 234 215 242 293
17 19 14 17 13 13 3 2 31 13 355 258 328 174 172 184 218 182 177 179 186 172 164 168 187 168 178 163 185 195 206 208 279 237 221 227 246 264
24 31 27 24 23 15 4 349 332 304 327 236 247 217 205 201 196 183 189 180 179 172 165 161 158 158 141 143 149 159 191 285 272 219 223 242 250 261
1 16 21 20 13 3 2 6 356 320 276 267 283 209 191 200 193 197 198 200 191 179 180 178 168 159 141 140 152 162 227 317 129 176 235 253 262 251
351 8 12 18 24 20 7 354 358 359 333 237 214 213 198 200 190 184 187 211 184 184 196 194 176 179 180 168 158 189 196 165 184 205 240 63 157 162